Weather History for KWRI - February, 2013

Change the Weather History Date:

Tuesday, February 26, 2013

  Actual Average Record
Temperature  
Mean Temperature 35 °F -  
Max Temperature 45 °F 45 °F 69 °F (2002)
Min Temperature 25 °F 27 °F 14 °F (2005)
Degree Days  
Heating Degree Days 30    
Moisture  
Dew Point 34 °F    
Average Humidity 85    
Maximum Humidity 100    
Minimum Humidity 53    
Precipitation  
Precipitation 0.25 in - - ()
Sea Level Pressure  
Sea Level Pressure 29.98 in    
Wind  
Wind Speed 11 mph (ENE)    
Max Wind Speed 25 mph    
Max Gust Speed 36 mph    
Visibility 8 miles    
Events Rain    
Averages and records for this station are not official NWS values.
T = Trace of Precipitation, MM = Missing Value Source: NWS Daily Summary

Daily Weather History Graph

Daily Weather History Graph

Search for Another Location

Airport or City:

Trip Planner

Search our weather history database for the weather conditions in past years. The results will help you decide how hot, cold, wet, or windy it might be!

Date:

Astronomy

Feb. 26, 2013 Rise Set
Actual Time 6:35 AM EST 5:47 PM EST
Civil Twilight 6:08 AM EST 6:14 PM EST
Nautical Twilight 5:37 AM EST 6:45 PM EST
Astronomical Twilight 5:05 AM EST 7:17 PM EST
Moon 7:01 PM EST (2/26) 6:37 AM EST (2/26)
Length of Visible Light 12h 05m
Length of Day
11h 11m
Full, 99% of the Moon is Illuminated
Feb 26
Full
Mar 4
Last Quarter
Mar 11
New
Mar 19
First Quarter
Mar 27
Full

Hourly Weather History & Observations

Time (EST) Temp. Windchill Dew Point Humidity Pressure Visibility Wind Dir Wind Speed Gust Speed Precip Events Conditions
12:55 AM 26.8 °F 21.4 °F 23.7 °F 88% 30.24 in 10.0 mi SW 4.6 mph - N/A   Clear
1:55 AM 28.4 °F - 24.3 °F 84% 30.24 in 10.0 mi Calm Calm - N/A   Clear
2:55 AM 25.9 °F - 23.4 °F 90% 30.23 in 10.0 mi Calm Calm - N/A   Clear
3:55 AM 25.9 °F - 23.2 °F 90% 30.23 in 10.0 mi Calm Calm - N/A   Clear
4:55 AM 25.2 °F - 22.8 °F 91% 30.22 in 10.0 mi Calm Calm - N/A   Clear
5:55 AM 25.5 °F - 23.0 °F 90% 30.21 in 10.0 mi Calm Calm - N/A   Clear
6:55 AM 26.1 °F - 23.5 °F 90% 30.23 in 10.0 mi Calm Calm - N/A   Clear
7:55 AM 28.6 °F - 25.7 °F 89% 30.24 in 10.0 mi Calm Calm - N/A   Clear
8:55 AM 34.9 °F 30.8 °F 29.1 °F 79% 30.24 in 10.0 mi NE 4.6 mph - N/A   Partly Cloudy
9:55 AM 40.8 °F 35.6 °F 30.7 °F 67% 30.24 in 10.0 mi East 8.1 mph - N/A   Scattered Clouds
10:55 AM 43.9 °F 36.8 °F 30.0 °F 58% 30.24 in 10.0 mi East 15.0 mph - N/A   Overcast
11:55 AM 45.3 °F 38.7 °F 29.7 °F 54% 30.21 in 10.0 mi East 15.0 mph 20.7 mph N/A   Overcast
12:55 PM 44.4 °F 37.2 °F 28.4 °F 53% 30.19 in 10.0 mi East 16.1 mph - N/A   Overcast
1:55 PM 43.3 °F 36.1 °F 30.6 °F 61% 30.17 in 10.0 mi East 15.0 mph - N/A   Overcast
2:55 PM 42.3 °F 34.8 °F 30.6 °F 63% 30.14 in 10.0 mi East 15.0 mph 23.0 mph N/A   Overcast
3:05 PM 42.8 °F 35.8 °F 30.2 °F 61% 30.12 in 10.0 mi ENE 13.8 mph 23.0 mph N/A   Overcast
3:55 PM 41.4 °F 34.3 °F 32.0 °F 69% 30.11 in 10.0 mi ENE 12.7 mph 21.9 mph N/A   Mostly Cloudy
4:55 PM 41.0 °F 32.8 °F 32.9 °F 73% 30.08 in 10.0 mi East 16.1 mph 23.0 mph N/A   Overcast
5:55 PM 40.5 °F 31.5 °F 32.9 °F 74% 30.06 in 10.0 mi East 18.4 mph 23.0 mph N/A   Overcast
6:14 PM 41.0 °F 32.2 °F 33.8 °F 76% 30.04 in 10.0 mi East 18.4 mph 28.8 mph N/A   Overcast
6:55 PM 40.5 °F 30.9 °F 32.5 °F 73% 30.02 in 10.0 mi East 20.7 mph 29.9 mph N/A   Overcast
7:09 PM 41.0 °F 32.8 °F 32.0 °F 70% 30.01 in 10.0 mi ENE 16.1 mph 25.3 mph N/A   Overcast
7:25 PM 41.0 °F 31.6 °F 32.0 °F 70% 30.01 in 10.0 mi ENE 20.7 mph 28.8 mph N/A   Overcast
7:29 PM 41.0 °F 31.9 °F 32.0 °F 70% 30.01 in 10.0 mi ENE 19.6 mph 27.6 mph N/A   Overcast
7:55 PM 38.3 °F 29.0 °F 34.3 °F 86% 29.97 in 10.0 mi ENE 17.3 mph 25.3 mph 0.00 in   Overcast
8:12 PM 37.4 °F 28.2 °F 35.6 °F 93% 29.96 in 8.0 mi ENE 16.1 mph 25.3 mph N/A   Overcast
8:20 PM 37.4 °F 27.2 °F 33.8 °F 87% 29.95 in 9.0 mi ENE 19.6 mph 31.1 mph N/A   Overcast
8:34 PM 37.4 °F 27.2 °F 33.8 °F 87% 29.93 in 10.0 mi ENE 19.6 mph 28.8 mph N/A   Overcast
8:55 PM 37.9 °F 28.9 °F 34.9 °F 89% 29.93 in 10.0 mi ENE 16.1 mph 28.8 mph 0.02 in   Overcast
9:04 PM 37.4 °F 27.5 °F 35.6 °F 93% 29.92 in 10.0 mi ENE 18.4 mph 35.7 mph N/A   Overcast
9:14 PM 37.4 °F 27.5 °F 35.6 °F 93% 29.93 in 10.0 mi ENE 18.4 mph 35.7 mph N/A   Overcast
9:19 PM 37.4 °F 28.2 °F 35.6 °F 93% 29.93 in 9.0 mi ENE 16.1 mph 24.2 mph N/A   Overcast
9:21 PM 37.4 °F 28.2 °F 35.6 °F 93% 29.93 in 7.0 mi ENE 16.1 mph 24.2 mph N/A   Overcast
9:26 PM 37.4 °F 27.5 °F 35.6 °F 93% 29.93 in 4.0 mi ENE 18.4 mph 24.2 mph N/A   Overcast
9:28 PM 39.2 °F 30.5 °F 35.6 °F 87% 29.92 in 4.0 mi ENE 16.1 mph - N/A Rain Rain
9:29 PM 39.2 °F 30.2 °F 35.6 °F 87% 29.92 in 4.0 mi ENE 17.3 mph - N/A Rain Rain
9:36 PM 39.2 °F 30.5 °F 37.4 °F 93% 29.92 in 4.0 mi ENE 16.1 mph 23.0 mph N/A Rain Light Rain
9:37 PM 39.2 °F 29.8 °F 37.4 °F 93% 29.91 in 4.0 mi ENE 18.4 mph 23.0 mph N/A Rain Light Rain
9:41 PM 39.2 °F 29.6 °F 37.4 °F 93% 29.90 in 6.0 mi ENE 19.6 mph - N/A Rain Light Rain
9:46 PM 39.2 °F 29.3 °F 37.4 °F 93% 29.89 in 9.0 mi ENE 20.7 mph 29.9 mph N/A Rain Light Rain
9:55 PM 38.8 °F 29.1 °F 37.2 °F 94% 29.89 in 10.0 mi ENE 19.6 mph 29.9 mph 0.06 in Rain Light Rain
10:16 PM 39.2 °F 28.3 °F 37.4 °F 93% 29.85 in 10.0 mi ENE 25.3 mph 33.4 mph N/A   Overcast
10:30 PM 39.2 °F 29.0 °F 37.4 °F 93% 29.83 in 10.0 mi ENE 21.9 mph 28.8 mph N/A   Overcast
10:38 PM 39.2 °F 28.7 °F 37.4 °F 93% 29.83 in 8.0 mi ENE 23.0 mph 29.9 mph N/A Rain Light Rain
10:44 PM 39.2 °F 29.3 °F 37.4 °F 93% 29.83 in 6.0 mi ENE 20.7 mph 29.9 mph N/A Rain Light Rain
10:46 PM 39.2 °F 29.6 °F 37.4 °F 93% 29.83 in 6.0 mi ENE 19.6 mph 29.9 mph N/A Rain Light Rain
10:50 PM 39.2 °F 29.3 °F 37.4 °F 93% 29.79 in 6.0 mi ENE 20.7 mph 29.9 mph N/A Rain Light Rain
10:55 PM 39.4 °F 29.5 °F 38.1 °F 95% 29.82 in 6.0 mi ENE 20.7 mph 31.1 mph 0.02 in Rain Light Rain
11:02 PM 39.2 °F 28.7 °F 37.4 °F 93% 29.79 in 4.0 mi ENE 23.0 mph 32.2 mph N/A Rain Light Rain
11:03 PM 39.2 °F 28.5 °F 37.4 °F 93% 29.79 in 4.0 mi ENE 24.2 mph 32.2 mph N/A Rain Light Rain
11:12 PM 39.2 °F 29.8 °F 39.2 °F 100% 29.80 in 3.0 mi ENE 18.4 mph 32.2 mph N/A Rain Rain
11:14 PM 39.2 °F 30.2 °F 39.2 °F 100% 29.80 in 3.0 mi ENE 17.3 mph 26.5 mph N/A Rain Rain
11:28 PM 41.0 °F 31.6 °F 39.2 °F 93% 29.76 in 3.0 mi East 20.7 mph 33.4 mph N/A   Overcast
11:31 PM 41.0 °F 31.6 °F 39.2 °F 93% 29.76 in 3.0 mi ENE 20.7 mph 33.4 mph N/A   Overcast
11:34 PM 41.0 °F 31.9 °F 39.2 °F 93% 29.78 in 4.0 mi ENE 19.6 mph 33.4 mph N/A   Overcast
11:40 PM 41.0 °F 32.5 °F 39.2 °F 93% 29.80 in 6.0 mi East 17.3 mph 27.6 mph N/A Rain Light Rain
11:54 PM 41.0 °F 33.1 °F 39.2 °F 93% 29.78 in 4.0 mi ENE 15.0 mph 27.6 mph N/A   Overcast
11:55 PM 40.5 °F 31.8 °F 39.2 °F 95% 29.78 in 4.0 mi ENE 17.3 mph 27.6 mph 0.15 in   Overcast
11:59 PM 41.0 °F 32.2 °F 39.2 °F 93% 29.78 in 4.0 mi ENE 18.4 mph 23.0 mph N/A   Overcast